Location: Round Knob
(37.2473°N, 88.7376°W)
Time: 21:21:01
(UTC+00:00)

N. Korean satellite - Pass Details

Date: 27 September 2021
Orbit: 450 x 495 km, 97.3° (Epoch: 23 October)

Event Time Altitude Azimuth Distance (km) Brightness Sun altitude
Rises 10:28:06 0° 26° (NNE) 2,539 10.8 -16.5°
Reaches altitude 10° 10:30:28 10° 41° (NE) 1,663 10.0 -16.0°
Maximum altitude 10:33:23 23° 96° (E) 1,068 9.2 -15.5°
Drops below altitude 10° 10:36:18 10° 150° (SSE) 1,671 9.5 -14.9°
Sets 10:38:40 0° 165° (SSE) 2,553 10.3 -14.4°
